Regional Weather Roundup
Issued by NWS

Home | Current Version | Previous Version | Graphics & Text | Print | Product List | Glossary On
Versions: 1 2 3 4 5 6 7 8 9 10 11 12 13 14 15 16 17 18 19 20 21 22 23 24 25 26 27 28 29 30 31 32 33 34 35 36 37 38 39 40 41 42 43 44 45 46 47 48 49 50
000
ASUS43 KMKX 020159
RWRWI

WISCONSIN REGIONAL WEATHER ROUNDUP
NATIONAL WEATHER SERVICE MILWAUKEE/SULLIVAN WI
900 PM CDT WED APR 01 2015

NOTE: "FAIR" INDICATES FEW OR NO CLOUDS BELOW 12,000 FEET WITH NO
SIGNIFICANT WEATHER AND/OR OBSTRUCTIONS TO VISIBILITY.

WIZ001-002-006>008-014>016-023>028-020300-
NORTHWEST WISCONSIN

CITY           SKY/WX    TMP DP  RH WIND       PRES   REMARKS
SUPERIOR ARPT  MOCLDY    34  33  95 NE7       29.46F WCI  28
ASHLAND        LGT RAIN  60  48  64 S22G33    29.47F
HAYWARD        LGT RAIN  58  48  69 S25G36    29.52R
SIREN          LGT RAIN  58  52  79 S7        29.49F
CUMBERLAND     TSTM      59  46  63 N12G25    29.53R
RICE LAKE      CLOUDY    70  34  27 NW10G21   29.57R
CHETEK         CLOUDY    70  35  28 S10       29.52R
LADYSMITH      CLOUDY    67  34  29 S10       29.56R
EAU CLAIRE     NOT AVBL
MENOMONIE      MOCLDY    71  32  24 SE13G23   29.52R
NEW RICHMOND   LGT RAIN  67  47  48 N13G21    29.52R
OSCEOLA        LGT RAIN  60  53  77 S8        29.54R
$$

WIZ003>005-009-010-017-018-020300-
NORTH CENTRAL WISCONSIN

CITY           SKY/WX    TMP DP  RH WIND       PRES   REMARKS
MANITOWISH WTR CLOUDY    53  37  53 SE6       29.58S
ARBOR VITAE    CLOUDY    55  38  53 SE8       29.58S
WOODRUFF       CLOUDY    55  38  53 SE8       29.58S
RHINELANDER    MOCLDY    54  37  52 SE6       29.61F
EAGLE RIVER    MOCLDY    50  34  53 S8        29.60F
LAND O LAKES   PTCLDY    51  35  55 S8        29.61S
PHILLIPS       CLOUDY    62  38  41 S8        29.55R
TOMAHAWK       MOCLDY    53  37  55 CALM      29.60S
MEDFORD        PTCLDY    64  36  35 S14       29.59R
MERRILL        MOCLDY    55  39  56 SE6       29.60F
$$

WIZ029-030-035-036-043>047-020300-
CENTRAL WISCONSIN

CITY           SKY/WX    TMP DP  RH WIND       PRES   REMARKS
WAUSAU         PTCLDY    65  33  30 S13       29.59F
MOSINEE        CLEAR     63  34  34 S15       29.62F
MARSHFIELD     PTCLDY    67  32  27 S16G23    29.60F
STEVENS POINT  PTCLDY    65  34  31 S10       29.64S
WAUPACA        PTCLDY    68  33  27 S15G23    29.66F
WAUTOMA        NOT AVBL
WISC RAPIDS    PTCLDY    70  29  21 S16G29    29.63F
CAMP DOUGLAS   NOT AVBL
$$

WIZ011>013-019>022-031-037>040-048>050-020300-
NORTHEAST WISCONSIN

CITY           SKY/WX    TMP DP  RH WIND       PRES   REMARKS
ANTIGO         MOCLDY    48  39  70 SE10      29.64F
SHAWANO        CLOUDY    56  40  53 S7        29.66F
OCONTO         CLOUDY    49  38  65 S6        29.68F
STURGEON BAY   CLOUDY    46  36  66 S20G25    29.73F
GREEN BAY      CLOUDY    55  40  56 S14       29.68F
MANITOWOC      NOT AVBL
APPLETON       MOCLDY    54  37  54 S10       29.69F
CLINTONVILLE   MOCLDY    55  39  54 S10       29.65F
OSHKOSH        PTCLDY    61  39  44 S18       29.70F
$$

WIZ032>034-041-042-053>061-020300-
SOUTHWEST WISCONSIN

CITY           SKY/WX    TMP DP  RH WIND       PRES   REMARKS
LA CROSSE      CLEAR     71  34  25 S22G30    29.58S
SPARTA         CLEAR     70  29  22 S20G29    29.62F
VIROQUA        CLEAR     66  32  28 S21G26    29.65F
BOSCOBEL       CLEAR     70  34  26 S14G24    29.67F
PRAIRIE DU CHI CLEAR     71  29  21 S13G21    29.67F
PLATTEVILLE    FAIR      62  37  38 S18       29.75R
$$

WIZ056-057-062-063-064-067-068-020300-
SOUTH CENTRAL WISCONSIN

CITY           SKY/WX    TMP DP  RH WIND       PRES   REMARKS
REEDSBURG      PTCLDY    68  36  30 S15G23    29.68F
BARABOO/DELLS  PTCLDY    66  33  29 S15G22    29.69S
LONE ROCK      NOT AVBL
MINERAL POINT  CLEAR     64  32  29 S15       29.75R
MADISON        CLEAR     67  36  31 S21G31    29.75R
MIDDLETON      CLEAR     68  30  24 S23G29    29.74S
WATERTOWN      CLEAR     64  38  38 S16G22    29.77S
MONROE         CLEAR     63  37  39 S20G26    29.78S
JANESVILLE     CLEAR     66  34  30 S20G25    29.80R
$$

WIZ051-052-058>065-066-070>072-020300-
SOUTHEAST WISCONSIN

CITY           SKY/WX    TMP DP  RH WIND       PRES   REMARKS
MILWAUKEE      PTCLDY    62  36  37 S14       29.82S
WAUKESHA       MOCLDY    66  36  32 S12G18    29.81S
MILWAUKEE/TIMM CLEAR     61  36  39 S9        29.81S
RACINE         PTCLDY    57  37  47 S12       29.85R
BURLINGTON     CLEAR     63  36  36 S16G26    29.82R
KENOSHA        FAIR      65  39  38 S16       29.84R
FOND DU LAC    PTCLDY    64  38  38 S21G28    29.72F
SHEBOYGAN      PTCLDY    48  36  63 S12       29.76F
WEST BEND      PTCLDY    55  34  44 S6        29.78S
JUNEAU         PTCLDY    64  38  37 S18G26    29.77R
$$

LSZ147-162-020300-
LAKE SUPERIOR

STATION/POSITION TIME  TEMP    WIND        PRES    WAVE
                       AIR SEA DIR/SP/G            HT/PER
                 (UTC) (F)     (DEG/KT/KT) (MB)    (FT/S)
DEVILS ISLAND    0100   38      70/  8/ 11  997.8F
PORT WING        0140   34      20/  8/  8  998.3F
SAXON HARBOR     0140   63     200/  6/ 11 1000.3R
$$

LMZ867-665-643>646-020300-
LAKE MICHIGAN

STATION/POSITION TIME  TEMP    WIND        PRES    WAVE
                       AIR SEA DIR/SP/G            HT/PER
                 (UTC) (F)     (DEG/KT/KT) (MB)    (FT/S)
NORTHPORT PIER   0100   38     140/ 10/ 16 1008.1F
SISTER BAY       0117   45     160/ 16/ 23   N/A
KEWAUNEE LAKESHO 0100   43     190/ 18/ 21 1006.7F
SHEBOYGAN LAKESH 0100   44     180/ 24/ 26 1008.7F
PORT WASHINGTON  0100   44     190/ 11/ 15 1009.8
MILWAUKEE LAKESH 0100   44     160/ 11/ 12   N/A
KENOSHA   LAKESH 0100   45     170/ 15/ 17 1010.5R
$$

TC  - TEMPERATURE IN CELSIUS
VSB - VISIBILITY IN STATUTE MILES
WCI - WIND CHILL INDEX
HX  - HEAT INDEX



USA.gov is the U.S. government's official web portal to all federal, state and local government web resources and services.